Location: Middle Street
(51.7167°N, 0.0333°E)
Time: 20:08:18
(UTC+00:00)

ATLAS 5 CENTAUR R/B - Pass Details

Date: 20 January 2021
Orbit: 511 x 1147 km, 63.3° (Epoch: 16 February)

Event Time Altitude Azimuth Distance (km) Brightness Sun altitude
Rises 18:39:28 0° 246° (WSW) 2,700 6.2 -19.9°
Reaches altitude 10° 18:41:37 10° 253° (WSW) 1,861 5.2 -20.2°
Maximum altitude 18:45:36 44° 327° (NNW) 857 2.4 -20.8°
Enters shadow 18:47:30 29° 20° (NNE) 1,202 2.8 -21.1°
